Temp
-4 -4 -4 -4 -4 -4 -4 -4 -4 -4 -5 -4 -5 -5 -6 -6 -6 -6 -6 -6 -6 -7 -7 -8 -7 -8 -8 -7 -8 -8 -8 -8 -8 -8 -8 -8 -8 -9 -9 -9 -9 -9 -9
-5 -5 -5 -4 -4 -4 -4 -4 -4 -4 -5 -5 -5 -5 -6 -7 -7 -7 -6 -6 -7 -7 -7 -8 -8 -8 -8 -8 -8 -8 -9 -9 -9 -9 -9 -9 -9 -9 -9 -9 -9 -9 -10
-5 -5 -5 -4 -4 -4 -4 -4 -4 -5 -5 -4 -5 -5 -6 -6 -6 -5 -6 -6 -6 -7 -7 -7 -8 -8 -8 -9 -9 -9 -9 -9 -9 -9 -9 -9 -9 -9 -9 -9 -10 -9 -9
-5 -5 -5 -5 -5 -4 -5 -5 -5 -5 -5 -5 -5 -5 -5 -5 -5 -5 -5 -5 -6 -6 -7 -8 -8 -7 -7 -7 -8 -9 -9 -8 -8 -9 -9 -9 -9 -9 -9 -9 -9 -9 -9
-5 -5 -5 -5 -5 -5 -5 -5 -5 -5 -4 -5 -6 -6 -6 -6 -6 -5 -6 -6 -6 -7 -7 -7 -7 -7 -8 -7 -7 -7 -7 -8 -8 -8 -9 -9 -9 -9 -8 -8 -8 -9 -9
-5 -5 -5 -5 -5 -6 -6 -6 -6 -6 -5 -6 -6 -6 -6 -6 -6 -6 -6 -6 -6 -7 -7 -7 -8 -7 -7 -8 -7 -7 -7 -7 -8 -8 -8 -8 -8 -8 -8 -8 -8 -8 -10
-6 -6 -6 -6 -6 -7 -7 -6 -6 -6 -6 -6 -6 -6 -7 -7 -7 -6 -7 -7 -7 -7 -7 -7 -7 -7 -8 -8 -8 -8 -8 -8 -8 -8 -8 -8 -8 -9 -9 -9 -9 -9 -9
-8 -8 -7 -7 -7 -7 -7 -7 -7 -7 -7 -7 -7 -6 -6 -7 -7 -6 -7 -7 -7 -7 -7 -7 -8 -8 -8 -8 -8 -8 -8 -9 -9 -9 -8 -9 -8 -9 -9 -9 -9 -9 -9
-8 -8 -8 -7 -7 -7 -7 -7 -7 -7 -7 -7 -7 -7 -7 -7 -7 -7 -7 -7 -7 -7 -7 -8 -8 -8 -9 -9 -9 -9 -8 -9 -9 -9 -9 -8 -9 -9 -9 -9 -9 -8 -8
-7 -7 -7 -8 -8 -7 -7 -7 -7 -7 -7 -7 -7 -7 -7 -7 -7 -7 -7 -7 -7 -7 -7 -8 -8 -8 -9 -9 -9 -9 -9 -9 -9 -9 -9 -9 -9 -9 -9 -9 -9 -9 -9
-7 -7 -8 -8 -8 -8 -8 -8 -7 -7 -7 -7 -7 -7 -7 -7 -7 -7 -7 -6 -7 -7 -7 -7 -7 -7 -8 -8 -8 -8 -8 -8 -8 -8 -9 -9 -9 -9 -9 -9 -9 -9 -9
-7 -7 -7 -7 -7 -8 -7 -7 -7 -7 -7 -7 -8 -8 -7 -7 -7 -7 -7 -7 -7 -6 -6 -7 -7 -7 -7 -7 -7 -7 -7 -8 -8 -8 -8 -8 -8 -8 -9 -9 -9 -8 -8
-6 -6 -7 -7 -8 -7 -7 -7 -7 -7 -8 -8 -8 -8 -8 -7 -7 -7 -7 -7 -7 -7 -6 -6 -6 -7 -6 -6 -6 -6 -6 -7 -7 -7 -6 -7 -7 -7 -7 -8 -8 -9 -9
-6 -6 -6 -6 -7 -7 -7 -7 -7 -7 -7 -7 -7 -7 -7 -7 -7 -6 -7 -7 -7 -6 -6 -6 -6 -6 -6 -6 -6 -6 -6 -6 -6 -6 -7 -7 -7 -7 -7 -7 -7 -7 -8
-5 -6 -6 -6 -6 -6 -6 -6 -6 -6 -6 -6 -6 -6 -6 -6 -6 -7 -7 -6 -6 -6 -5 -6 -6 -6 -6 -6 -6 -6 -7 -7 -7 -7 -7 -7 -7 -7 -7 -7 -5 -6 -7
-5 -5 -5 -5 -6 -6 -6 -6 -5 -5 -5 -5 -5 -5 -5 -5 -6 -6 -6 -6 -5 -5 -5 -6 -6 -6 -6 -6 -6 -7 -7 -7 -7 -7 -7 -7 -7 -6 -6 -6 -6 -6 -6
-5 -5 -5 -5 -5 -5 -5 -5 -5 -5 -5 -5 -5 -5 -5 -5 -5 -5 -5 -5 -5 -5 -5 -6 -6 -6 -6 -7 -6 -7 -6 -6 -7 -7 -7 -7 -7 -6 -6 -6 -6 -6 -6
-6 -5 -5 -5 -5 -5 -5 -5 -5 -5 -5 -5 -5 -5 -5 -5 -5 -5 -5 -5 -6 -6 -6 -6 -6 -6 -7 -6 -6 -7 -7 -7 -7 -7 -6 -7 -6 -6 -6 -6 -6 -6 -5
-6 -6 -6 -6 -5 -5 -5 -5 -5 -5 -5 -5 -5 -5 -5 -5 -5 -5 -5 -5 -6 -6 -6 -6 -7 -7 -7 -7 -7 -7 -7 -7 -7 -7 -7 -7 -7 -6 -6 -7 -7 -5 -4
-6 -6 -6 -6 -6 -6 -6 -6 -5 -5 -5 -6 -6 -5 -6 -6 -6 -6 -6 -6 -6 -6 -6 -7 -7 -7 -7 -7 -7 -7 -7 -7 -7 -7 -7 -7 -7 -7 -7 -6 -5 -5 -3
-7 -6 -6 -7 -7 -6 -7 -6 -6 -6 -6 -6 -6 -6 -6 -6 -6 -6 -6 -7 -7 -7 -7 -7 -7 -7 -7 -8 -8 -8 -7 -7 -8 -7 -7 -7 -7 -7 -7 -6 -7 -7 -8
-7 -7 -7 -7 -7 -7 -7 -7 -7 -7 -7 -7 -7 -7 -6 -7 -7 -7 -7 -7 -7 -7 -7 -7 -8 -8 -8 -8 -7 -7 -7 -7 -7 -7 -7 -7 -8 -7 -7 -7 -8 -7 -8
-8 -7 -7 -7 -7 -7 -7 -7 -7 -7 -7 -7 -8 -8 -8 -8 -8 -8 -8 -8 -8 -8 -8 -9 -9 -8 -8 -8 -7 -7 -7 -7 -6 -8 -8 -8 -8 -8 -8 -8 -8 -8 -9
-8 -8 -8 -8 -8 -8 -8 -8 -8 -8 -8 -8 -8 -8 -9 -9 -9 -9 -9 -9 -8 -9 -9 -9 -9 -8 -8 -8 -7 -7 -8 -8 -8 -8 -8 -8 -9 -8 -9 -9 -9 -9 -9
-9 -8 -8 -8 -8 -8 -8 -8 -8 -8 -8 -8 -9 -9 -9 -9 -9 -9 -9 -9 -9 -9 -9 -9 -9 -9 -9 -8 -8 -8 -9 -9 -9 -9 -8 -9 -10 -10 -10 -10 -10 -10 -10
-7 -7 -8 -8 -8 -8 -8 -8 -8 -8 -8 -9 -9 -9 -9 -9 -9 -9 -9 -10 -10 -9 -10 -10 -10 -9 -9 -9 -9 -9 -10 -9 -9 -9 -9 -9 -9 -10 -11 -10 -10 -10 -11
Height
5911 5914 5917 5921 5925 5929 5931 5933 5935 5937 5938 5939 5939 5940 5941 5941 5942 5942 5943 5943 5943 5943 5942 5942 5942 5943 5943 5942 5941 5943 5944 5943 5941 5940 5939 5937 5934 5933 5931 5928 5924 5920 5917
5906 5912 5916 5919 5922 5926 5930 5932 5934 5934 5935 5935 5935 5936 5936 5937 5939 5940 5940 5941 5941 5941 5941 5941 5941 5942 5941 5941 5940 5940 5940 5940 5940 5939 5936 5934 5932 5930 5928 5926 5923 5919 5915
5904 5909 5913 5917 5920 5924 5927 5929 5931 5932 5933 5933 5933 5933 5934 5935 5936 5938 5938 5939 5939 5939 5939 5939 5939 5940 5940 5940 5938 5938 5938 5937 5934 5934 5934 5932 5930 5928 5925 5922 5919 5916 5913
5903 5907 5910 5914 5917 5920 5923 5926 5928 5930 5930 5931 5932 5933 5934 5935 5936 5936 5937 5938 5938 5937 5938 5938 5938 5937 5936 5936 5936 5936 5935 5933 5932 5930 5928 5927 5924 5922 5920 5917 5914 5911 5908
5899 5904 5907 5910 5914 5917 5920 5922 5924 5926 5928 5928 5929 5931 5932 5933 5934 5935 5936 5936 5937 5936 5936 5936 5936 5935 5935 5933 5931 5932 5931 5931 5930 5928 5926 5924 5921 5917 5915 5913 5911 5906 5902
5895 5900 5904 5908 5911 5914 5917 5919 5921 5923 5925 5926 5927 5929 5930 5932 5933 5933 5934 5935 5936 5936 5936 5935 5934 5933 5933 5931 5929 5927 5927 5927 5925 5923 5922 5920 5917 5914 5910 5908 5906 5903 5901
5891 5895 5900 5904 5907 5911 5913 5916 5918 5920 5922 5923 5925 5926 5928 5929 5930 5931 5932 5933 5933 5933 5933 5933 5933 5932 5931 5930 5927 5925 5922 5921 5920 5918 5917 5916 5912 5909 5904 5902 5899 5896 5892
5887 5891 5896 5900 5904 5907 5910 5913 5915 5917 5919 5920 5922 5923 5924 5925 5926 5927 5928 5929 5929 5929 5929 5929 5929 5928 5927 5926 5923 5922 5919 5918 5914 5910 5909 5909 5907 5903 5898 5893 5891 5888 5884
5883 5888 5893 5897 5901 5904 5908 5910 5912 5913 5915 5917 5918 5919 5921 5921 5920 5921 5921 5922 5923 5924 5924 5924 5924 5923 5922 5919 5918 5916 5915 5915 5912 5907 5901 5899 5897 5895 5890 5884 5881 5874 5874
5878 5884 5888 5891 5894 5898 5902 5904 5906 5908 5910 5912 5913 5915 5916 5916 5915 5915 5916 5916 5918 5918 5918 5919 5918 5917 5915 5914 5911 5908 5907 5909 5902 5899 5895 5891 5888 5886 5881 5877 5872 5865 5859
5873 5875 5879 5884 5890 5893 5894 5896 5899 5902 5904 5906 5908 5909 5910 5910 5910 5910 5910 5910 5911 5910 5911 5912 5911 5909 5907 5905 5903 5901 5900 5896 5892 5888 5887 5883 5879 5875 5871 5865 5858 5853 5847
5866 5870 5875 5880 5883 5884 5887 5889 5892 5894 5896 5898 5900 5902 5903 5903 5903 5903 5903 5904 5904 5904 5904 5903 5902 5900 5899 5897 5894 5892 5889 5885 5881 5875 5874 5874 5869 5865 5860 5852 5847 5840 5834
5856 5859 5863 5868 5870 5874 5876 5879 5882 5884 5886 5889 5891 5893 5895 5894 5894 5895 5897 5897 5896 5895 5894 5894 5893 5891 5889 5887 5884 5881 5877 5872 5867 5863 5860 5858 5854 5848 5843 5839 5833 5825 5817
5846 5849 5852 5855 5857 5860 5864 5867 5869 5872 5875 5878 5880 5882 5884 5884 5885 5886 5887 5887 5885 5885 5884 5883 5881 5879 5877 5875 5872 5869 5864 5860 5855 5851 5845 5840 5834 5829 5824 5822 5815 5811 5802
5838 5841 5844 5846 5847 5849 5852 5855 5859 5862 5865 5867 5870 5871 5874 5875 5876 5876 5876 5876 5875 5874 5873 5871 5870 5867 5865 5862 5858 5855 5852 5849 5844 5838 5831 5826 5819 5810 5803 5800 5796 5789 5781
5831 5834 5837 5839 5840 5841 5844 5846 5849 5853 5855 5857 5859 5861 5863 5863 5864 5865 5865 5864 5864 5863 5862 5860 5858 5856 5853 5850 5846 5841 5838 5835 5831 5825 5819 5812 5804 5795 5785 5777 5772 5766 5762
5821 5824 5827 5831 5833 5834 5836 5839 5841 5844 5845 5846 5848 5849 5850 5852 5852 5852 5852 5853 5853 5852 5850 5848 5846 5843 5840 5837 5832 5828 5825 5821 5814 5807 5800 5795 5789 5780 5772 5764 5751 5745 5741
5812 5816 5818 5821 5823 5825 5827 5829 5831 5832 5834 5836 5837 5838 5839 5839 5840 5841 5841 5840 5839 5838 5837 5835 5832 5830 5826 5822 5818 5815 5811 5805 5799 5793 5786 5781 5775 5767 5760 5751 5740 5726 5714
5801 5805 5808 5811 5814 5815 5818 5820 5821 5822 5824 5826 5827 5826 5826 5826 5827 5827 5827 5826 5826 5824 5823 5821 5817 5814 5811 5809 5805 5801 5796 5792 5786 5780 5773 5768 5762 5753 5746 5736 5724 5711 5698
5789 5793 5796 5798 5801 5805 5805 5806 5808 5810 5812 5813 5813 5814 5813 5813 5813 5813 5813 5812 5811 5810 5808 5806 5803 5800 5797 5794 5790 5787 5782 5776 5770 5765 5758 5753 5748 5741 5732 5725 5712 5701 5687
5777 5779 5782 5785 5787 5789 5792 5794 5795 5797 5798 5798 5799 5799 5800 5800 5800 5799 5798 5797 5796 5794 5793 5791 5788 5784 5781 5779 5776 5773 5768 5762 5756 5752 5745 5738 5734 5729 5721 5711 5703 5690 5679
5763 5766 5768 5770 5773 5775 5777 5778 5780 5781 5782 5783 5784 5784 5784 5784 5784 5784 5784 5783 5781 5779 5777 5775 5772 5769 5766 5764 5761 5757 5753 5748 5742 5738 5733 5728 5722 5717 5711 5705 5699 5693 5683
5751 5753 5756 5757 5758 5760 5761 5763 5764 5766 5767 5767 5768 5768 5768 5768 5767 5767 5766 5765 5764 5762 5760 5758 5756 5753 5751 5748 5745 5742 5738 5733 5727 5725 5721 5718 5713 5708 5703 5700 5694 5690 5684
5736 5738 5740 5742 5743 5745 5746 5748 5749 5749 5749 5750 5750 5749 5749 5749 5749 5749 5749 5748 5747 5745 5743 5741 5739 5738 5735 5731 5728 5726 5721 5717 5714 5711 5709 5707 5703 5697 5696 5694 5691 5688 5685
5719 5720 5724 5727 5728 5729 5730 5731 5731 5731 5730 5730 5732 5732 5732 5732 5732 5731 5730 5728 5728 5726 5724 5723 5722 5720 5718 5715 5712 5709 5707 5705 5702 5700 5698 5696 5693 5690 5688 5687 5685 5681 5679
5698 5700 5704 5707 5709 5711 5712 5713 5713 5712 5713 5713 5715 5715 5715 5714 5713 5713 5712 5711 5710 5709 5708 5706 5704 5703 5700 5698 5694 5693 5691 5690 5688 5685 5682 5679 5678 5677 5677 5675 5674 5671 5670
Wind_Speed
19 22 23 22 21 19 18 15 12 12 14 14 15 16 14 11 11 10 9 10 10 9 10 13 13 13 14 16 16 12 9 9 13 14 14 15 19 21 23 24 25 28 29
24 23 24 24 22 19 15 11 10 9 8 7 8 10 11 11 10 11 11 11 10 10 9 10 12 11 14 15 17 19 17 15 13 12 16 18 17 21 24 25 25 27 32
23 23 23 22 20 15 12 11 9 7 6 6 9 11 9 9 8 7 6 5 6 6 6 7 11 9 10 14 17 18 18 19 21 20 17 18 18 22 25 27 29 31 35
23 22 22 21 18 13 14 12 10 7 9 10 10 9 9 7 5 4 5 5 4 5 6 3 5 9 11 12 13 15 18 18 20 23 24 23 26 29 29 27 30 33 36
22 21 21 21 17 16 14 12 10 7 7 8 9 9 8 9 8 7 5 5 7 9 7 5 5 5 7 11 15 16 18 19 21 22 24 28 31 33 33 34 35 38 41
23 21 21 19 16 18 16 12 9 7 6 7 10 11 10 10 10 7 6 5 8 5 4 2 3 5 7 8 13 17 18 18 18 21 23 25 29 32 35 35 37 39 40
23 24 22 19 16 17 15 13 11 10 9 8 8 11 12 11 11 9 9 9 9 8 7 6 5 7 10 13 17 20 21 22 24 27 25 25 30 34 40 40 39 41 41
23 21 20 16 17 17 16 16 15 13 10 10 8 9 13 14 15 14 14 9 10 12 12 13 12 13 14 15 19 22 26 25 28 31 34 34 35 36 39 44 46 50 47
26 23 20 21 21 19 17 17 18 16 14 12 11 12 14 17 20 20 19 18 16 16 16 17 17 18 19 22 23 25 26 25 30 36 41 41 45 43 41 46 49 56 54
29 26 26 27 26 25 24 20 21 19 17 16 15 16 16 18 24 23 23 24 22 22 22 21 23 24 25 27 30 33 33 31 37 40 42 44 46 46 48 51 50 53 58
27 34 33 31 27 26 28 29 26 24 25 22 20 20 19 19 20 25 29 30 28 28 27 28 30 31 33 34 35 36 36 38 40 42 44 45 47 51 53 54 59 58 60
33 32 32 31 31 32 33 32 32 32 31 29 28 28 27 27 27 29 31 30 32 32 33 34 36 36 36 38 41 43 44 45 47 52 53 52 56 56 56 61 61 63 65
34 35 34 33 35 35 37 36 36 35 37 37 38 33 34 35 34 32 34 35 37 38 40 41 39 40 41 42 44 45 47 51 54 56 57 57 57 59 60 60 61 64 66
33 36 39 42 42 44 45 45 45 42 42 42 41 40 40 39 37 35 34 38 41 42 41 42 42 43 46 48 51 51 54 56 59 60 61 61 64 63 63 60 58 58 64
29 32 37 41 45 47 47 47 46 45 42 40 39 39 39 39 39 39 41 40 41 43 42 43 45 48 50 53 56 57 58 59 61 62 63 64 65 63 61 59 61 64 71
29 30 32 40 45 45 43 42 38 39 39 36 37 37 38 40 41 42 43 44 43 42 45 48 51 54 55 55 57 60 62 63 62 61 60 60 59 59 63 68 69 71 69
33 34 33 33 35 38 39 39 39 38 39 39 39 39 39 39 42 44 45 44 45 46 50 53 55 54 55 57 61 64 64 65 63 64 63 59 59 59 60 63 66 70 71
36 36 36 37 39 40 40 40 41 42 41 42 41 42 43 44 44 45 46 48 50 52 54 55 56 57 59 62 65 66 67 66 64 63 61 59 60 55 57 59 61 65 79
39 39 40 40 40 41 42 43 43 44 43 43 43 45 47 48 49 50 51 54 54 55 56 57 59 61 63 65 67 68 68 66 64 63 61 58 58 54 58 63 66 69 66
47 46 44 43 44 44 46 47 48 48 48 48 49 50 51 54 54 54 54 56 57 58 59 61 63 65 67 69 69 69 69 69 66 61 58 61 56 54 57 57 54 56 50
52 52 51 49 48 49 48 49 51 52 51 51 52 53 54 55 57 58 60 60 61 62 64 67 68 70 72 70 71 69 69 64 62 59 56 60 58 53 55 56 51 50 41
49 51 53 53 53 54 54 54 55 55 56 57 57 58 59 60 61 62 63 64 67 69 71 72 72 73 73 75 71 66 67 67 64 61 59 57 54 53 51 48 45 41 30
55 56 56 56 56 56 56 57 58 58 59 59 61 63 64 66 67 68 68 69 71 72 73 74 74 76 77 71 68 67 70 67 63 61 53 48 51 52 49 45 44 41 30
56 59 60 60 61 62 64 64 64 65 66 68 69 67 67 68 69 69 71 72 73 75 76 75 74 73 70 69 68 70 62 57 54 49 46 47 47 46 45 40 40 31 25
55 59 58 62 65 66 67 67 68 70 72 73 70 69 72 71 71 73 74 73 74 75 75 72 69 71 69 66 63 64 59 55 54 51 48 45 43 43 39 39 39 36 30
59 61 56 55 56 61 67 69 70 72 75 74 75 74 71 73 73 72 73 73 73 75 72 67 66 68 61 61 62 63 59 57 56 54 51 49 50 47 44 40 39 38 37
Wind_Direction
202 195 184 188 191 193 203 214 225 239 248 250 241 245 244 232 239 255 259 268 273 280 293 305 316 331 346 355 8 31 31 5 352 344 340 341 344 345 349 350 350 351 351
194 192 191 191 194 202 209 213 221 234 240 240 230 230 228 228 228 240 253 264 274 279 288 301 314 324 333 338 346 355 357 355 360 352 347 340 339 339 339 342 343 347 346
190 190 195 194 197 195 201 204 208 206 177 187 198 207 198 204 216 234 247 258 271 276 284 302 319 328 314 321 326 332 339 338 337 334 334 334 334 337 338 339 339 341 342
196 195 197 194 185 183 187 197 200 186 179 193 202 200 186 178 175 152 120 106 88 70 64 18 344 339 328 320 310 311 316 321 329 327 329 328 330 328 330 328 332 333 335
199 203 199 192 186 183 194 188 191 185 189 195 186 183 185 176 164 139 123 107 110 93 69 42 32 353 324 319 318 314 312 310 312 312 314 317 319 317 321 324 328 327 328
199 200 201 191 178 182 190 193 191 184 204 205 188 183 179 179 165 166 178 159 156 150 128 70 355 332 326 321 310 309 308 310 313 309 309 315 312 315 313 320 322 323 321
192 196 190 193 182 185 191 188 190 197 201 207 203 187 192 194 195 190 202 210 205 214 216 236 251 281 294 299 297 296 299 304 304 300 303 309 305 308 307 312 313 313 310
194 198 192 177 177 186 188 189 194 203 202 213 224 226 220 218 223 224 231 224 224 239 248 259 265 267 271 277 282 290 290 296 304 303 305 307 308 306 310 312 316 321 309
205 200 199 180 191 193 196 197 202 209 217 224 238 242 236 235 237 241 250 256 254 259 263 264 273 279 284 285 286 291 296 299 299 299 300 305 305 308 301 302 308 307 310
218 215 205 200 201 196 197 203 210 210 222 238 248 254 262 260 244 241 245 258 265 270 273 277 279 280 280 280 282 285 292 297 287 288 292 294 299 301 303 305 304 304 303
214 212 210 210 213 213 216 216 219 228 234 240 246 253 258 265 271 264 256 264 265 267 275 280 282 282 280 282 284 288 291 289 289 290 293 295 295 297 295 296 297 297 299
216 219 218 221 224 223 230 225 227 228 229 237 242 246 251 257 268 267 266 272 274 275 274 273 277 282 284 285 289 290 292 291 291 293 294 295 296 296 295 294 296 296 295
215 219 220 221 225 227 229 230 232 233 238 239 239 244 248 254 261 264 262 267 271 271 272 275 277 279 284 288 290 292 295 297 296 297 299 303 301 299 297 294 292 292 289
215 216 218 220 226 229 229 231 233 235 238 240 242 245 247 254 261 265 267 268 269 272 273 275 283 289 290 293 293 295 297 298 301 305 305 303 303 303 301 301 296 293 290
228 228 228 228 234 238 240 241 244 246 250 249 248 252 254 258 261 265 268 270 270 273 278 281 284 286 289 291 294 296 297 299 302 303 305 307 307 305 303 302 301 294 293
233 230 228 227 231 240 245 250 255 257 258 255 254 255 256 256 258 262 265 267 270 275 279 281 282 284 288 291 295 295 296 300 303 305 307 306 307 306 300 299 299 298 294
241 240 237 235 234 239 244 247 249 251 252 252 253 255 257 257 257 260 264 268 272 273 275 277 280 285 289 291 292 295 302 305 307 309 307 307 311 310 304 301 304 303 300
245 242 241 240 241 243 244 246 248 250 251 252 253 256 258 260 263 264 266 268 271 273 275 279 282 286 289 292 296 301 303 305 307 308 303 306 312 309 305 303 302 303 309
243 244 244 244 244 246 248 249 251 253 256 258 260 263 264 264 264 265 266 267 270 273 276 280 284 287 290 294 297 299 303 305 307 308 304 310 311 310 308 305 302 308 309
248 247 246 245 246 246 249 252 254 255 257 258 259 260 261 263 265 267 269 271 273 276 279 282 285 288 291 293 296 301 303 305 305 304 305 306 310 309 306 310 309 318 319
247 250 251 250 250 251 251 253 255 257 258 258 260 262 263 264 265 267 270 272 275 278 280 281 284 286 289 295 297 299 302 304 304 304 307 309 313 312 310 315 327 329 327
245 248 251 252 254 254 256 256 256 258 259 261 262 264 266 268 269 271 273 275 277 278 279 281 284 289 293 294 296 298 303 301 299 301 304 310 310 310 312 317 321 320 331
248 250 250 251 252 253 254 254 256 259 260 262 264 266 267 269 271 272 273 275 276 279 283 285 287 289 293 295 295 297 302 300 297 299 304 306 303 306 307 312 313 316 325
247 248 249 251 251 252 254 257 258 260 261 262 265 266 268 270 272 274 276 278 281 282 284 287 289 292 293 294 295 297 304 302 301 300 299 298 296 299 301 304 301 306 302
248 250 251 251 251 254 255 256 257 258 258 259 259 263 270 272 273 274 275 279 281 282 284 287 289 291 291 294 295 298 299 298 298 297 293 290 287 289 289 290 292 293 289
253 251 250 244 247 251 252 252 255 258 259 259 262 268 271 278 277 276 275 278 280 282 283 285 284 287 288 288 293 293 294 293 294 292 291 289 286 284 285 281 281 284 289